www.pogodaiklimat.ru
ПОГОДА в Западном Арнасае

Архив погоды в Западном Арнасае (Джизакская область, Узбекистан)

Время
(UTC), дата
03 22.05
06 22.05
09 22.05
12 22.05
15 22.05
18 22.05
21 22.05
00 23.05
03 23.05
06 23.05
09 23.05
12 23.05
15 23.05
18 23.05
21 23.05
00 24.05
03 24.05
06 24.05
09 24.05
12 24.05
15 24.05
18 24.05
21 24.05
00 25.05
03 25.05
06 25.05
09 25.05
12 25.05
15 25.05
18 25.05
21 25.05
00 26.05
03 26.05
06 26.05
09 26.05
12 26.05
15 26.05
18 26.05
21 26.05
00 27.05
03 27.05
06 27.05
09 27.05
12 27.05
15 27.05
18 27.05
21 27.05
00 28.05
03 28.05
06 28.05
09 28.05
12 28.05
15 28.05
18 28.05
21 28.05
00 29.05
Ветер
(напр.,м/с)
Видим. Явления Облачность Т
(С)
Тd
(С)
f
(%)
Тe
(С)
Тes
(С)
Комфортность P
(гПа)
Po
(гПа)
Тmin
(С)
Tmax
(С)
R
(мм)
R24
(мм)
S
(см)
С 2 50 км 8/0
[Ac lent Ci fib]
+20.4 +13.0 62 +23 +26 комфорт 1017.0 988.1
СВ 2 50 км 5/0
[Ac lent Ci fib]
+25.0 +10.3 40 +26 +38 жарко 1016.3 987.8 +17.8
СВ 3 50 км 3/0
[Ac lent]
+26.4 +10.4 37 +27 +38 жарко 1015.7 987.4
СВ 3 50 км 3/0
[Ac lent Ci fib]
+27.4 +10.9 36 +28 +32 жарко 1014.4 986.2
С 6 50 км 8/6 600 м
[Cb cap Ac lent]
+25.3 +8.9 35 +26 +26 жарко 1014.9 986.5 +28.5
СЗ 3 н/о 10/8 600 м
[Cb cap Ac lent]
+22.2 +10.7 48 +24 +24 комфорт 1015.3 986.6 +28.5
С 1 н/о 10/10 600 м
[Cb cap]
+21.0 +12.9 60 +25 +25 комфорт 1014.5 985.7
СЗ 2 50 км 6/5 600 м
[Cb cap Ac lent]
+20.4 +12.2 59 +23 +23 комфорт 1014.1 985.3
СЗ 2 50 км 6/0
[Ac cast]
+21.6 +11.1 51 +23 +27 комфорт 1014.0 985.3
З 2 50 км 3/0
[Ci fib]
+24.6 +11.5 44 +26 +43 жарко 1013.3 984.9 +19.2
З 2 50 км 3/0
[Ci fib]
+27.4 +10.9 36 +28 +45 жарко 1011.2 983.1
Ю 2 50 км 3/0
[Ci fib]
+28.4 +12.8 38 +30 +35 жарко 1008.9 981.0
ЮЗ 2 50 км 3/0
[Ci fib]
+24.2 +18.4 70 +29 +29 душно 1008.5 980.3 +29.5
С 2 н/о 4/0
[Ci fib]
+23.2 +20.1 83 +30 +30 очень душно 1008.1 979.8 +29.5
С 1 н/о 6/0
[Ac lent Ci fib]
+21.6 +17.7 78 +26 +26 душно 1006.5 978.1
С 2 10 км гроза без осадков {ливн. дождь} 10/8 600 м
[Cb cap Ac lent]
+21.0 +16.9 77 +25 +25 комфорт 1004.3 975.9
В 2 10 км в посл. час гроза {ливн. дождь} 8/5 600 м
[Cb cap Ac lent Ci fib]
+20.4 +18.5 89 +25 +27 комфорт 1007.7 979.1
Ю 3 10 км {гроза, ливн. дождь} 10/5 600 м
[Cb cap Ac lent]
+23.0 +18.7 77 +29 +30 очень душно 1007.4 979.1 +19.0 5
Ю 3 20 км 9/6 600 м
[Cb cap Ac lent]
+23.0 +18.2 74 +29 +31 очень душно 1009.3 980.9
СЗ 2 20 км 6/0
[Ac lent Ci fib]
+26.4 +16.7 55 +30 +34 душно 1009.6 981.5
В 3 50 км 8/3 600 м
[Cb cap Ac lent Ci fib]
+23.4 +18.4 74 +30 +30 очень душно 1009.9 981.5 +27.0
ЮВ 3 н/о 8/4 600 м
[Cb cap Ac lent]
+21.1 +19.4 90 +26 +26 душно 1010.8 982.2 +27.0
В 4 н/о 6/0
[Ac lent Ci fib]
+19.8 +18.9 95 +23 +23 комфорт 1009.8 981.1
ЮВ 4 20 км 3/0
[Ac lent]
+19.0 +18.1 95 +21 +21 комфорт 1009.7 980.9
ЮЗ 5 20 км 3/0
[Ac lent]
+21.8 +17.6 77 +26 +29 душно 1010.7 982.2
З 7 50 км 4/0
[Ac lent Ci fib]
+24.0 +13.3 51 +26 +30 жарко 1012.2 983.8 +18.8
З 8 50 км 3/0
[Ac lent]
+26.0 +12.1 42 +27 +27 жарко 1011.2 983.9
З 7 50 км 3/0
[Ac lent]
+27.2 +11.8 38 +28 +30 жарко 1012.3 984.2
СЗ 8 50 км 4/0
[Ac lent Ci fib]
+25.2 +12.8 46 +27 +27 жарко 1015.0 986.6 +27.8
н/о н/о +20.2 +9.3 49 +21 +21 комфорт 1019.5 990.5 +27.8
СЗ 7 н/о 6/0
[Ac lent]
+13.8 +4.3 53 +12 +12 1024.6 994.7
С 5 50 км 3/0
[Ac lent]
+11.6 +2.9 55 +9 +9 1026.7 996.5
С 6 50 км 3/0
[Ac lent]
+12.2 +0.6 45 +10 +12 1027.6 997.5
СВ 1 50 км ясно +15.0 +2.5 43 +16 +37 опасность простуды 1027.5 997.7 +11.2
СВ 2 50 км ясно +18.2 +3.8 38 +19 +37 опасность простуды 1026.1 996.6
СВ 4 50 км 1/0
[Ci fib]
+19.6 +0.9 29 +20 +24 1024.3 995.0
СВ 3 50 км 3/0
[Ci fib]
+17.0 +0.4 32 +17 +17 1024.1 994.6 +20.4
С 5 н/о 4/0
[Ci fib]
+16.4 +1.9 38 +16 +16 1023.1 993.5 +20.4
С 5 н/о 4/0
[Ci fib]
+15.4 +4.5 48 +14 +14 1020.2 990.6
С 2 50 км 1/0
[Ci fib]
+13.4 +7.7 68 +13 +13 1018.6 988.9
В 2 50 км ясно +16.6 +8.4 58 +17 +23 1017.4 988.1
СВ 4 50 км ясно +21.6 +5.6 35 +22 +34 комфорт 1015.4 986.6 +12.0
С 5 50 км ясно +24.8 +8.4 35 +25 +35 комфорт 1013.3 984.9
СВ 5 50 км 3/0
[Ci fib]
+26.0 +8.8 34 +26 +29 жарко 1012.2 983.9
СВ 3 50 км 4/0
[Ci fib]
+23.8 +12.7 50 +26 +26 жарко 1011.9 983.5 +26.8
С 1 н/о 3/0
[Ci fib]
+20.6 +18.1 86 +26 +26 душно 1012.2 983.5 +26.8
СЗ 1 н/о ясно +18.6 +15.9 84 +21 +21 комфорт 1012.3 983.4
З 2 50 км ясно +18.0 +13.8 76 +19 +19 1013.3 984.3
СЗ 1 50 км 6/0
[Ac lent Ci fib]
+20.2 +10.6 54 +23 +28 комфорт 1014.2 985.3
З 4 50 км 5/0
[Ci fib]
+27.4 +8.8 31 +27 +38 жарко 1013.9 985.7 +17.4
СЗ 2 50 км 5/0
[Ci fib]
+29.2 +10.6 32 +30 +46 жарко 1013.3 985.3
З 1 50 км 3/0
[Ci fib]
+29.8 +7.8 25 +29 +35 жарко 1013.0 985.0
В 2 50 км 3/0
[Ac lent]
+24.4 +8.9 37 +25 +25 комфорт 1013.8 985.3 +31.0
С 4 н/о ясно +22.6 +7.7 38 +24 +24 комфорт 1015.0 986.3 +31.0
С 4 н/о ясно +19.4 +4.0 36 +20 +20 1015.5 986.5
50 км ясно +19.1 +5.5 41 1015.7 986.6
Местоположение метеостанции Западный Арнасай (Джизакская область, Узбекистан): широта 40.83 долгота 67.67 высота над уровнем моря 250 м.
В архиве по умолчанию представлена погода в Западном Арнасае за последнюю неделю. Архивные данные за месяц целиком и за предыдущие месяцы, начиная с января 2011 года, Вы можете получить, выбрав интересующий диапазон дат из раскрывающегося списка и нажав кнопку "Найти!".
*Определитесь, кто Вы:
Внимание! Время в таблицах - всемирное. Для получения местного времени необходимо прибавить поправку, которая равна 5 ч.
Некоторые строки с данными для отдельных станций могут быть выделены курсивом. Это означает, что фактические данные отсутствуют по различным причинам, а приведенные значения являются расчетными модельными данными для данного пункта наблюдений.
Смотрите также архив погоды в соседних городах и на ближайших метеорологических станциях:
Партнеры нашего сайта:      
Пояснения к столбцам:
  • Ветер - указаны скорость ветра в м/с - средняя за 10 мин, порывы в срок и между сроками (в фигурных скобках) и направление, откуда дует ветер: С - северный,
  • СВ - северо-восточный, В - восточный, ЮВ - юго-восточный, Ю - южный, ЮЗ - юго-западный, З - западный, СЗ - северо-западный.
  • Видимость - горизонтальная дальность видимости в метрах или километрах. При видимости от 1 до 10 км при отсутствии осадков обычно наблюдается дымка, при ухудшении видимости до 1 км и менее - туман. В сухую погоду видимость может ухудшаться дымом, пылью или мглою.
  • Явления - указаны атмосферные явления, наблюдавшиеся в срок или в последний час перед сроком; фигурными скобками обозначены явления, наблюдавшиеся между сроками (за 1-3 часа до срока); квадратными скобками обозначены град или гололедные отложения с указанием их диаметра в мм.
  • Облачность - указаны через наклонную черту общая и нижняя облачность в баллах и высота нижней границы облаков в метрах; квадратными скобками обозначены формы облаков: Ci - перистые, Cs - перисто-слоистые, Cc - перисто-кучевые, Ac - высококучевые, As - высокослоистые, Sc - слоисто-кучевые, Ns - слоисто-дождевые, Cu - кучевые, Cb - кучево-дождевые. Подробнее классификацию облаков см. в Атласе облаков (PDF).
  • T - Температура воздуха - температура, измеренная на высоте 2 м над землей.
  • Td - Температура точки росы - температура, при понижении до которой содержащийся в воздухе водяной пар достигнет насыщения.
  • f - Относительная влажность воздуха - влажноcть воздуха, измеренная на высоте 2 м над землей.
  • Te - Эффективная температура - температура, которую ощущает одетый по сезону человек в тени. Характеристика душности погоды. При расчете учитывается влияние влажности воздуха и скорости ветра на теплоощущения человека.
  • Tes - Эффективная температура на солнце - температура, которую ощущает человек, с поправкой на солнечный нагрев. Характеристика знойности погоды. Зависит от высоты солнца над горизонтом, облачности и скорости ветра. Ночью, в пасмурную погоду, а также при ветре 12 м/с и более поправка равна нулю.
  • P - Атмосферное давление - приведенное к уровню моря атмосферное давление.
  • Po - Атмосферное давление - измеренное на уровне метеостанции атмосферное давление.
  • Tmin - Минимальная температура - минимум температуры воздуха на высоте 2 м над землей.
  • Tmax - Максимальная температура - максимум температуры воздуха на высоте 2 м над землей.
  • R - Количество осадков - Количество выпавших осадков за период времени, мм. При наведении курсора мыши на число - период времени, за который выпало указанное количество осадков.
  • R24 - Количество осадков - Количество выпавших осадков за 24 часа, мм.
  • S - Снежный покров - Высота снежного покрова, см. При наведении курсора мыши на число - состояние снежного покрова и степень покрытия местности в баллах.